Tiempo cada hora Abay (Maktaaralskiy rayon)

Hoy, 20 Octubre, Martes

Tiempo Temperatura Precipitaciones Viento Presión Humedad
00:00 +15°C° 0 mm 1 mps 737 mmHg 23%
01:00 +14°C° 0 mm 1 mps 737 mmHg 23%
02:00 +13°C° 0 mm 1 mps 737 mmHg 24%
03:00 +13°C° 0 mm 1 mps 737 mmHg 24%
04:00 +13°C° 0 mm 1 mps 737 mmHg 25%
05:00 +12°C° 0 mm 1 mps 737 mmHg 25%
06:00 +13°C° 0 mm 1 mps 737 mmHg 24%
07:00 +14°C° 0 mm 1 mps 737 mmHg 22%
08:00 +16°C° 0 mm 1 mps 737 mmHg 21%
09:00 +20°C° 0 mm 1 mps 738 mmHg 18%
10:00 +23°C° 0 mm 1 mps 738 mmHg 16%
11:00 +26°C° 0 mm 1 mps 738 mmHg 13%
12:00 +27°C° 0 mm 2 mps 738 mmHg 12%
13:00 +28°C° 0 mm 2 mps 737 mmHg 12%
14:00 +29°C° 0 mm 2 mps 737 mmHg 12%
15:00 +28°C° 0 mm 2 mps 737 mmHg 13%
16:00 +27°C° 0 mm 3 mps 738 mmHg 14%
17:00 +25°C° 0 mm 3 mps 738 mmHg 15%
18:00 +23°C° 0 mm 2 mps 738 mmHg 18%
19:00 +20°C° 0 mm 2 mps 738 mmHg 20%
20:00 +19°C° 0 mm 1 mps 739 mmHg 22%
21:00 +18°C° 0 mm 1 mps 739 mmHg 23%
22:00 +18°C° 0 mm 1 mps 739 mmHg 23%
23:00 +16°C° 0 mm 1 mps 739 mmHg 24%

Mañana, 21 Octubre, Miércoles

Tiempo Temperatura Precipitaciones Viento Presión Humedad
00:00 +15°C° 0 mm 1 mps 739 mmHg 24%
01:00 +15°C° 0 mm 1 mps 739 mmHg 24%
02:00 +14°C° 0 mm 1 mps 739 mmHg 25%
03:00 +14°C° 0 mm 1 mps 739 mmHg 26%
04:00 +14°C° 0 mm 1 mps 740 mmHg 27%
05:00 +12°C° 0 mm 0 mps 740 mmHg 27%
06:00 +14°C° 0 mm 1 mps 740 mmHg 26%
07:00 +15°C° 0 mm 1 mps 741 mmHg 24%
08:00 +16°C° 0 mm 1 mps 741 mmHg 22%
09:00 +20°C° 0 mm 1 mps 741 mmHg 19%
10:00 +23°C° 0 mm 1 mps 741 mmHg 16%
11:00 +26°C° 0 mm 1 mps 742 mmHg 13%
12:00 +27°C° 0 mm 1 mps 741 mmHg 12%
13:00 +27°C° 0 mm 2 mps 741 mmHg 11%
14:00 +28°C° 0 mm 3 mps 741 mmHg 11%
15:00 +27°C° 0 mm 3 mps 741 mmHg 12%
16:00 +25°C° 0 mm 3 mps 740 mmHg 14%
17:00 +24°C° 0 mm 3 mps 740 mmHg 15%
18:00 +21°C° 0 mm 2 mps 741 mmHg 17%
19:00 +19°C° 0 mm 2 mps 741 mmHg 19%
20:00 +19°C° 0 mm 1 mps 741 mmHg 21%
21:00 +18°C° 0 mm 1 mps 741 mmHg 21%
22:00 +16°C° 0 mm 1 mps 741 mmHg 21%
23:00 +16°C° 0 mm 1 mps 741 mmHg 22%

Pasado mañana, 22 Octubre, Jueves

Tiempo Temperatura Precipitaciones Viento Presión Humedad
00:00 +15°C° 0 mm 2 mps 741 mmHg 23%
01:00 +15°C° 0 mm 2 mps 741 mmHg 24%
02:00 +14°C° 0 mm 3 mps 741 mmHg 26%
03:00 +13°C° 0 mm 3 mps 742 mmHg 37%
04:00 +12°C° 0 mm 3 mps 742 mmHg 48%
05:00 +11°C° 0 mm 4 mps 742 mmHg 59%
06:00 +11°C° 0 mm 4 mps 742 mmHg 59%
07:00 +11°C° 0 mm 4 mps 743 mmHg 59%
08:00 +12°C° 0 mm 4 mps 743 mmHg 59%
09:00 +13°C° 0 mm 3 mps 743 mmHg 54%
10:00 +14°C° 0 mm 3 mps 743 mmHg 48%
11:00 +16°C° 0 mm 3 mps 743 mmHg 43%
12:00 +17°C° 0 mm 3 mps 742 mmHg 40%
13:00 +18°C° 0 mm 3 mps 742 mmHg 37%
14:00 +19°C° 0 mm 3 mps 741 mmHg 34%
15:00 +18°C° 0 mm 3 mps 741 mmHg 35%
16:00 +18°C° 0 mm 3 mps 741 mmHg 36%
17:00 +17°C° 0 mm 3 mps 741 mmHg 37%
18:00 +16°C° 0 mm 3 mps 741 mmHg 38%
19:00 +13°C° 0 mm 3 mps 741 mmHg 40%
20:00 +12°C° 0 mm 3 mps 741 mmHg 42%
21:00 +12°C° 0 mm 3 mps 741 mmHg 41%
22:00 +11°C° 0 mm 3 mps 741 mmHg 40%
23:00 +11°C° 0 mm 3 mps 740 mmHg 38%

23 Octubre, Viernes

Tiempo Temperatura Precipitaciones Viento Presión Humedad
00:00 +11°C° 0 mm 3 mps 741 mmHg 37%
01:00 +12°C° 0 mm 2 mps 741 mmHg 36%
02:00 +12°C° 0 mm 2 mps 741 mmHg 35%
03:00 +12°C° 0.1 mm 1 mps 741 mmHg 42%
04:00 +11°C° 0.1 mm 1 mps 741 mmHg 49%
05:00 +11°C° 0.1 mm 1 mps 741 mmHg 56%
06:00 +11°C° 0 mm 1 mps 742 mmHg 55%
07:00 +11°C° 0 mm 1 mps 742 mmHg 54%
08:00 +12°C° 0 mm 1 mps 743 mmHg 52%
09:00 +13°C° 0 mm 2 mps 743 mmHg 46%
10:00 +14°C° 0 mm 2 mps 743 mmHg 39%
11:00 +16°C° 0 mm 2 mps 743 mmHg 33%
12:00 +16°C° 0 mm 3 mps 743 mmHg 32%
13:00 +17°C° 0 mm 3 mps 743 mmHg 30%
14:00 +17°C° 0 mm 3 mps 743 mmHg 29%
15:00 +17°C° 0 mm 3 mps 743 mmHg 30%
16:00 +16°C° 0 mm 3 mps 743 mmHg 31%
17:00 +14°C° 0 mm 3 mps 744 mmHg 33%
18:00 +13°C° 0 mm 3 mps 744 mmHg 35%
19:00 +12°C° 0 mm 3 mps 744 mmHg 37%
20:00 +11°C° 0 mm 3 mps 745 mmHg 39%
21:00 +10°C° 0 mm 2 mps 745 mmHg 39%
22:00 +10°C° 0 mm 2 mps 745 mmHg 40%
23:00 +10°C° 0 mm 2 mps 745 mmHg 41%

24 Octubre, Sábado

Tiempo Temperatura Precipitaciones Viento Presión Humedad
00:00 +9°C° 0 mm 2 mps 745 mmHg 42%
01:00 +8°C° 0 mm 2 mps 745 mmHg 43%
02:00 +9°C° 0 mm 1 mps 745 mmHg 44%
03:00 +9°C° 0 mm 1 mps 745 mmHg 44%
04:00 +9°C° 0 mm 1 mps 745 mmHg 45%
05:00 +8°C° 0 mm 1 mps 745 mmHg 45%
06:00 +9°C° 0 mm 1 mps 746 mmHg 44%
07:00 +9°C° 0 mm 1 mps 746 mmHg 43%
08:00 +10°C° 0 mm 1 mps 746 mmHg 42%
09:00 +12°C° 0 mm 1 mps 746 mmHg 38%
10:00 +13°C° 0 mm 2 mps 746 mmHg 34%
11:00 +15°C° 0 mm 2 mps 746 mmHg 30%
12:00 +16°C° 0 mm 2 mps 746 mmHg 29%
13:00 +17°C° 0 mm 2 mps 746 mmHg 27%
14:00 +17°C° 0 mm 2 mps 746 mmHg 26%
15:00 +17°C° 0 mm 3 mps 746 mmHg 27%
16:00 +16°C° 0 mm 3 mps 746 mmHg 29%
17:00 +14°C° 0 mm 3 mps 746 mmHg 31%
18:00 +13°C° 0 mm 4 mps 747 mmHg 35%
19:00 +11°C° 0 mm 4 mps 747 mmHg 38%
20:00 +10°C° 0 mm 4 mps 748 mmHg 42%
21:00 +9°C° 0 mm 3 mps 748 mmHg 44%
22:00 +8°C° 0 mm 3 mps 748 mmHg 46%
23:00 +8°C° 0 mm 3 mps 748 mmHg 48%

25 Octubre, Domingo

Tiempo Temperatura Precipitaciones Viento Presión Humedad
00:00 +7°C° 0 mm 2 mps 748 mmHg 50%
01:00 +7°C° 0 mm 2 mps 748 mmHg 52%
02:00 +7°C° 0 mm 1 mps 748 mmHg 53%
03:00 +7°C° 0 mm 1 mps 748 mmHg 54%
04:00 +7°C° 0 mm 1 mps 748 mmHg 54%
05:00 +5°C° 0 mm 0 mps 747 mmHg 55%
06:00 +6°C° 0 mm 0 mps 748 mmHg 52%
07:00 +7°C° 0 mm 0 mps 748 mmHg 49%
08:00 +9°C° 0 mm 1 mps 748 mmHg 46%
09:00 +12°C° 0 mm 1 mps 747 mmHg 40%
10:00 +14°C° 0 mm 1 mps 747 mmHg 33%
11:00 +18°C° 0 mm 1 mps 747 mmHg 27%
12:00 +19°C° 0 mm 1 mps 746 mmHg 25%
13:00 +20°C° 0 mm 1 mps 746 mmHg 24%
14:00 +20°C° 0 mm 2 mps 746 mmHg 22%
15:00 +20°C° 0 mm 2 mps 746 mmHg 23%
16:00 +19°C° 0 mm 2 mps 745 mmHg 24%
17:00 +18°C° 0 mm 2 mps 745 mmHg 26%
18:00 +16°C° 0 mm 2 mps 745 mmHg 29%
19:00 +14°C° 0 mm 3 mps 745 mmHg 32%
20:00 +12°C° 0 mm 3 mps 745 mmHg 36%
21:00 +11°C° 0 mm 3 mps 745 mmHg 37%
22:00 +11°C° 0 mm 3 mps 744 mmHg 37%
23:00 +10°C° 0 mm 3 mps 744 mmHg 38%

26 Octubre, Lunes

Tiempo Temperatura Precipitaciones Viento Presión Humedad
00:00 +10°C° 0 mm 2 mps 744 mmHg 39%
01:00 +9°C° 0 mm 2 mps 743 mmHg 39%
02:00 +10°C° 0 mm 1 mps 743 mmHg 39%
03:00 +9°C° 0 mm 1 mps 743 mmHg 40%
04:00 +9°C° 0 mm 1 mps 743 mmHg 40%
05:00 +8°C° 0 mm 0 mps 742 mmHg 41%
06:00 +9°C° 0 mm 0 mps 742 mmHg 38%
07:00 +10°C° 0 mm 0 mps 742 mmHg 36%
08:00 +10°C° 0 mm 0 mps 742 mmHg 34%
09:00 +13°C° 0 mm 0 mps 742 mmHg 28%
10:00 +16°C° 0 mm 0 mps 742 mmHg 23%
11:00 +19°C° 0 mm 0 mps 742 mmHg 17%
12:00 +21°C° 0 mm 0 mps 741 mmHg 16%
13:00 +24°C° 0 mm 1 mps 741 mmHg 14%
14:00 +25°C° 0 mm 1 mps 740 mmHg 12%
15:00 +24°C° 0 mm 1 mps 740 mmHg 13%
16:00 +23°C° 0 mm 1 mps 740 mmHg 14%
17:00 +21°C° 0 mm 1 mps 739 mmHg 16%
18:00 +20°C° 0 mm 1 mps 739 mmHg 17%
19:00 +18°C° 0 mm 1 mps 739 mmHg 19%
20:00 +15°C° 0 mm 1 mps 739 mmHg 20%
21:00 +15°C° 0 mm 1 mps 739 mmHg 20%
22:00 +14°C° 0 mm 1 mps 738 mmHg 20%
23:00 +13°C° 0 mm 1 mps 738 mmHg 20%
Mostrar más

Necesitamos Su Consentimiento

Meteoprog y nuestros Proveedores de Servicios pueden almacenar y acceder a sus datos personales como cookies, identificadores de dispositivo u otras tecnologías similares de su dispositivo y procesar dichos datos para personalizar contenido y anuncios, además de ofrecer funciones de redes sociales y analizar el tráfico.

  • Almacenar y/o acceder a información en su dispositivo

    Se puede almacenar o acceder a cookies, identificadores de dispositivo u otra información de su dispositivo para los fines anteriormente indicados.

  • Anuncios y contenido personalizados, medición de anuncios y contenido, percepciones del público, y desarrollo de productos

    Los anuncios y el contenido pueden personalizarse en base a su perfil. Se pueden añadir más datos para personalizar mejor los anuncios y contenidos. Se puede medir el rendimiento de los anuncios y contenidos. Se puede obtener la percepción sobre el público que ha visto los anuncios y contenidos. Dichos datos pueden usarse para desarrollar o mejorar la experiencia del usuario, sistemas y software.

Al hacer clic en ‘Estoy De Acuerdo’ usted permitirá el uso de las cookies, identificadores de dispositivo, balizas web u otras tecnologías similares indicadas. Su configuración puede cambiarse desde el navegador de su dispositivo.

Para ciertos fines, los intereses legítimos pueden ser considerados por encima del consentimiento. Puede leer más sobre ello en nuestra Política de Privacidad y Cookies.